User: anonymous   Login
Location: Caltech
(34.1382°N, 118.1253°W)
Time: 05:34:56
(UTC-08:00)
Language:

Oscar 10/S400 - Orbit

View from above orbital plane
View from above orbital plane
View from above satellite
View from above satellite

Ground track
Ground track

The orbit data is extracted from the following two-line orbital elements,

1 14129U 83058B   18021.97290843 -.00000042 +00000-0 +00000-0 0  9992
2 14129 027.1532 359.3521 6024421 003.7469 005.6532 02.05869280232339
Epoch (UTC): 21 January 2018 23:20:59
Eccentricity: 0.6024421
inclination: 27.1532°
perigee height: 3999 km
apogee height: 35448 km
right ascension of ascending node: 359.3521°
argument of perigee: 3.7469°
revolutions per day: 2.05869280
mean anomaly at epoch: 5.6532°
orbit number at epoch: 23233

The dashed part of the orbit path shows where the satellite is in the earth's shadow,  

DLR